STARLINK-32235 (60739 NORAD) Tracking and Keplerian Element Data

This shows tracking and keplerian element data for the satellite.

Feedback or suggestion? Click here.




ElementValue
Catalog60739
NameSTARLINK-32235
Epoch Orbit827
Epoch Day286.80756688
Epoch Year2024
RAAN130.8922
Inclination53.1608
Eccentricity9.96E-05
Argument of Perigee109.4474
Mean Anonmoly250.6634
Mean Motion15.30191977
Decay Rate-1.962E-05
L11 60739U 24152V 24286.80756688 -.00001962 00000+0 -54144-4 0 9990
L22 60739 53.1608 130.8922 0000996 109.4474 250.6634 15.30191977 8274



Live tracking and technical data element details for STARLINK-32235 (NORAD 60739). STARLINK-32235 can be tracked NOW for your location showing map with azimuth and elevation plus other details from your city location.







IsCatalogInMostPopularTable: catalog: 60739, numindb: 9
Update: records affected: 1



GetName: 60739 STARLINK-32235

Hit Count: updated at: Wed, 04 Dec 2024 19:35:53 GMT